Regional Weather Roundup
Issued by NWS

Home | Current Version | Previous Version | Graphics & Text | Print | Product List | Glossary On
Versions: 1 2 3 4 5 6 7 8 9 10 11 12 13 14 15 16 17 18 19 20 21 22 23 24 25 26 27 28 29 30 31 32 33 34 35 36 37 38 39 40 41 42 43 44 45 46 47 48 49 50
000
ASUS43 KIND 311759
RWRIN

WEATHER ROUNDUP FOR INDIANA
NATIONAL WEATHER SERVICE INDIANAPOLIS IN
200 PM EDT MON AUG 31 2015

NOTE: "FAIR" INDICATES FEW OR NO CLOUDS BELOW 12,000 FEET WITH NO
SIGNIFICANT WEATHER AND/OR OBSTRUCTIONS TO VISIBILITY.

* - STATION DOES NOT REPORT WEATHER SUCH AS PRECIPITATION OR FOG.

+ - STATION NOT QUALITY CONTROLLED BY THE NATIONAL WEATHER SERVICE.
    USE DATA WITH CAUTION...ESPECIALLY DEWPOINT AND RELATIVE
    HUMIDITY OBSERVATIONS.

INZ001>003-010>013-019-020-311900-
NORTHWEST INDIANA

CITY           SKY/WX    TMP DP  RH WIND       PRES   REMARKS
GARY /AIRPORT/ MOSUNNY   82  66  57 CALM      30.08F

$$

LMZ046-743>745-311900-
SOUTHERN LAKE MICHIGAN

STATION/POSITION TIME  TEMP    WIND        PRES    WAVE
                       AIR SEA DIR/SP/G            HT
                 (UTC) (F)     (DEG/KT/KT) (MB)    (FT)
BURNS HARBOR     1700   77      40/  4/  5 1019.3F
MICHIGAN CITY    1720   77     340/  4/  4   N/A
5NW MICH CITY    1700   74 72  340/  2/  4   N/A     0

$$

INZ004-005-014>016-021>024-311900-
NORTH CENTRAL INDIANA

CITY           SKY/WX    TMP DP  RH WIND       PRES   REMARKS
ELKHART        SUNNY     82  68  61 SW6       30.09F
GOSHEN         MOSUNNY   82  69  64 W7        30.09F
6HR MIN TEMP:  64; 6HR MAX TEMP:  83; 6HR PCP: TRACE;

SOUTH BEND     MOSUNNY   81  69  67 VRB5      30.09F
6HR MIN TEMP:  63; 6HR MAX TEMP:  81;


$$

INZ006>009-017-018-025>027-311900-
NORTHEAST INDIANA

CITY           SKY/WX    TMP DP  RH WIND       PRES   REMARKS
ANGOLA *+      SUNNY     84  72  65 SW5       30.09F
FORT WAYNE     MOSUNNY   85  70  60 SW6       30.10F
6HR MIN TEMP:  65; 6HR MAX TEMP:  85;


$$

INZ028-029-035-036-043>045-051>053-311900-
WEST CENTRAL INDIANA

CITY           SKY/WX    TMP DP  RH WIND       PRES   REMARKS
CRAWFORDSVL +  MOSUNNY   82  63  51 SW9       30.10F
6HR MIN TEMP:  64; 6HR MAX TEMP:  83;

GREENCASTLE +  SUNNY     82  64  54 S7        30.12F
LAFAYETTE      PTSUNNY   85  68  56 S8        30.08F
6HR MIN TEMP:  65; 6HR MAX TEMP:  86;

TERRE HAUTE    SUNNY     83  69  62 SW7       30.10F
6HR MIN TEMP:  66; 6HR MAX TEMP:  84;


$$

INZ030>032-037>040-046>048-054>057-064-065-311900-
CENTRAL INDIANA

CITY           SKY/WX    TMP DP  RH WIND       PRES   REMARKS
ANDERSON       PTSUNNY   86  61  42 S9        30.12F
COLUMBUS       PTSUNNY   82  66  57 W9        30.12F
GREENWOOD *+   PTSUNNY   82  64  54 S3        30.12F
INDIANAPOLIS   MOSUNNY   83  65  54 SW8       30.11F
6HR MIN TEMP:  68; 6HR MAX TEMP:  85;

-EAGLE CREEK   MOSUNNY   85  67  54 VRB6      30.10F
6HR MIN TEMP:  68; 6HR MAX TEMP:  85;

KOKOMO *+      CLOUDY    84  70  61 SW7       30.09F
6HR MIN TEMP:  66; 6HR MAX TEMP:  86;

MT COMFORT *+  SUNNY     86  57  37 SW9       30.12S
SHELBYVILLE    PTSUNNY   85  67  54 S8        30.11F
6HR MIN TEMP:  70; 6HR MAX TEMP:  85;


$$

INZ033-034-041-042-049-050-058-059-311900-
EAST CENTRAL INDIANA

CITY           SKY/WX    TMP DP  RH WIND       PRES   REMARKS
MUNCIE         MOSUNNY   82  67  60 VRB3      30.11F
6HR MIN TEMP:  70; 6HR MAX TEMP:  83;


$$

INZ060-061-067>069-081>083-085>088-311900-
SOUTHWEST INDIANA

CITY           SKY/WX    TMP DP  RH WIND       PRES   REMARKS
EVANSVILLE     PTSUNNY   84  67  56 S5        30.11F
6HR MIN TEMP:  67; 6HR MAX TEMP:  85;

HUNTINGBURG *+ MOSUNNY   84  68  58 SE3       30.12F
6HR MIN TEMP:  66; 6HR MAX TEMP:  84;


$$

INZ062-063-066-070>080-084-089>092-311900-
SOUTH CENTRAL AND SOUTHEAST INDIANA

CITY           SKY/WX    TMP DP  RH WIND       PRES   REMARKS
BLOOMINGTON    MOSUNNY   83  69  62 W6        30.13F
6HR MIN TEMP:  66; 6HR MAX TEMP:  83;

MADISON *+     MOSUNNY   84  63  48 W3        30.15F
SEYMOUR +      MOSUNNY   86  66  51 CALM      30.12F

$$




USA.gov is the U.S. government's official web portal to all federal, state and local government web resources and services.